Location: Newark
(28.1667°N, 17.3333°W)
Time: 21:06:23
(UTC+00:00)

Tiangong 2 - Visible Passes

Search period start: 22 February 2019 00:00
Search period end: 04 March 2019 00:00
Orbit: 380 x 390 km, 42.8° (Epoch: 22 February)

Date Brightness Start Highest point End Pass type
(mag) Time Alt. Az. Time Alt. Az. Time Alt. Az.
22 Feb 1.4 19:27:04 10° NW 19:30:09 48° NNE 19:33:11 10° ESE visible
22 Feb 4.2 21:04:58 10° WSW 21:06:07 13° SW 21:06:07 13° SW visible
23 Feb 2.9 20:04:43 10° WNW 20:07:32 29° SW 20:10:19 10° SSE visible
25 Feb 4.1 19:43:57 10° WSW 19:45:34 13° SW 19:47:12 10° SSW visible
